Time,TemperatureF,DewpointF,PressureIn,WindDirection,WindDirectionDegrees,WindSpeedMPH,WindSpeedGustMPH,Humidity,HourlyPrecipIn,Conditions,Clouds,dailyrainin,SoftwareType,DateUTC
2013-05-21 00:09:00,65.6,61.0,29.68,SSW,196,6.0,15.0,84,0.00,,,0.85,weatherlink.com 1.10,2013-05-21 05:09:00,
2013-05-21 00:25:00,65.4,61.0,29.67,South,183,3.0,12.0,85,0.00,,,0.85,weatherlink.com 1.10,2013-05-21 05:25:00,
2013-05-21 00:39:00,65.2,61.0,29.67,WSW,239,7.0,12.0,85,0.00,,,0.85,weatherlink.com 1.10,2013-05-21 05:39:00,
2013-05-21 00:55:00,65.0,61.0,29.68,SW,231,11.0,15.0,86,0.00,,,0.85,weatherlink.com 1.10,2013-05-21 05:55:00,
2013-05-21 01:09:00,65.0,61.0,29.69,WSW,240,7.0,12.0,86,0.00,,,0.85,weatherlink.com 1.10,2013-05-21 06:09:00,
2013-05-21 01:25:00,64.8,61.0,29.67,SSW,199,4.0,9.0,86,0.00,,,0.85,weatherlink.com 1.10,2013-05-21 06:25:00,
2013-05-21 01:39:00,64.5,60.0,29.68,SW,219,3.0,8.0,86,0.00,,,0.85,weatherlink.com 1.10,2013-05-21 06:39:00,
2013-05-21 01:55:00,64.5,60.0,29.67,WSW,250,2.0,10.0,86,0.00,,,0.00,weatherlink.com 1.10,2013-05-21 06:55:00,
2013-05-21 02:09:00,64.2,60.0,29.66,WSW,239,5.0,10.0,86,0.00,,,0.00,weatherlink.com 1.10,2013-05-21 07:09:00,
2013-05-21 02:25:00,63.8,60.0,29.66,SW,222,2.0,11.0,87,0.00,,,0.00,weatherlink.com 1.10,2013-05-21 07:25:00,
2013-05-21 02:39:00,63.5,60.0,29.65,WSW,246,8.0,11.0,88,0.00,,,0.00,weatherlink.com 1.10,2013-05-21 07:39:00,
2013-05-21 02:55:00,63.2,60.0,29.65,SSW,207,2.0,12.0,88,0.00,,,0.00,weatherlink.com 1.10,2013-05-21 07:55:00,
2013-05-21 03:09:00,63.2,60.0,29.64,SSW,212,3.0,14.0,88,0.00,,,0.00,weatherlink.com 1.10,2013-05-21 08:09:00,
2013-05-21 03:26:00,63.3,60.0,29.65,South,184,8.0,13.0,88,0.00,,,0.00,weatherlink.com 1.10,2013-05-21 08:26:00,
2013-05-21 03:40:00,63.3,60.0,29.66,SW,227,6.0,12.0,88,0.00,,,0.00,weatherlink.com 1.10,2013-05-21 08:40:00,
2013-05-21 03:55:00,63.4,60.0,29.66,SW,226,10.0,13.0,88,0.00,,,0.00,weatherlink.com 1.10,2013-05-21 08:55:00,
2013-05-21 04:10:00,63.2,60.0,29.66,SSW,206,7.0,13.0,89,0.00,,,0.00,weatherlink.com 1.10,2013-05-21 09:10:00,
2013-05-21 04:25:00,62.9,60.0,29.67,SSW,201,5.0,11.0,89,0.00,,,0.00,weatherlink.com 1.10,2013-05-21 09:25:00,
2013-05-21 04:40:00,62.6,60.0,29.66,SSW,193,4.0,11.0,90,0.00,,,0.00,weatherlink.com 1.10,2013-05-21 09:40:00,
2013-05-21 04:55:00,62.5,60.0,29.66,SW,225,2.0,12.0,90,0.00,,,0.00,weatherlink.com 1.10,2013-05-21 09:55:00,
2013-05-21 05:10:00,62.6,60.0,29.66,SSW,213,12.0,14.0,90,0.00,,,0.00,weatherlink.com 1.10,2013-05-21 10:10:00,
2013-05-21 05:25:00,62.5,60.0,29.66,South,186,3.0,12.0,90,0.00,,,0.00,weatherlink.com 1.10,2013-05-21 10:25:00,
2013-05-21 05:40:00,62.4,60.0,29.66,SSW,202,7.0,12.0,91,0.00,,,0.00,weatherlink.com 1.10,2013-05-21 10:40:00,
2013-05-21 05:55:00,62.3,60.0,29.67,SSW,209,7.0,15.0,91,0.00,,,0.00,weatherlink.com 1.10,2013-05-21 10:55:00,
2013-05-21 06:10:00,62.2,60.0,29.67,SSW,213,7.0,11.0,91,0.00,,,0.00,weatherlink.com 1.10,2013-05-21 11:10:00,
2013-05-21 06:25:00,62.5,60.0,29.67,SSW,206,2.0,10.0,91,0.00,,,0.00,weatherlink.com 1.10,2013-05-21 11:25:00,
2013-05-21 06:41:00,63.0,60.0,29.67,South,180,6.0,8.0,90,0.00,,,0.00,weatherlink.com 1.10,2013-05-21 11:41:00,
2013-05-21 06:56:00,63.1,60.0,29.67,SSW,208,2.0,13.0,90,0.00,,,0.00,weatherlink.com 1.10,2013-05-21 11:56:00,
2013-05-21 07:11:00,63.8,61.0,29.66,SSW,213,5.0,10.0,90,0.00,,,0.00,weatherlink.com 1.10,2013-05-21 12:11:00,
2013-05-21 07:26:00,64.3,61.0,29.66,SW,228,2.0,12.0,89,0.00,,,0.00,weatherlink.com 1.10,2013-05-21 12:26:00,
2013-05-21 07:41:00,65.3,62.0,29.67,SSW,208,7.0,11.0,88,0.00,,,0.00,weatherlink.com 1.10,2013-05-21 12:41:00,
2013-05-21 07:56:00,65.4,62.0,29.66,SSW,212,5.0,13.0,88,0.00,,,0.00,weatherlink.com 1.10,2013-05-21 12:56:00,
2013-05-21 08:11:00,65.9,62.0,29.67,SW,234,1.0,15.0,88,0.00,,,0.00,weatherlink.com 1.10,2013-05-21 13:11:00,
2013-05-21 08:26:00,66.6,63.0,29.67,West,264,3.0,11.0,88,0.00,,,0.00,weatherlink.com 1.10,2013-05-21 13:26:00,
2013-05-21 08:41:00,67.4,63.0,29.68,WSW,244,4.0,11.0,86,0.00,,,0.00,weatherlink.com 1.10,2013-05-21 13:41:00,
2013-05-21 08:56:00,67.7,63.0,29.68,SW,229,5.0,12.0,86,0.00,,,0.00,weatherlink.com 1.10,2013-05-21 13:56:00,
2013-05-21 09:11:00,68.7,64.0,29.68,South,191,6.0,13.0,84,0.00,,,0.00,weatherlink.com 1.10,2013-05-21 14:11:00,
2013-05-21 09:26:00,69.1,64.0,29.68,WSW,255,6.0,14.0,83,0.00,,,0.00,weatherlink.com 1.10,2013-05-21 14:26:00,
2013-05-21 09:41:00,69.9,64.0,29.68,West,275,5.0,14.0,81,0.00,,,0.00,weatherlink.com 1.10,2013-05-21 14:41:00,
2013-05-21 09:56:00,70.6,65.0,29.68,SW,220,4.0,13.0,81,0.00,,,0.00,weatherlink.com 1.10,2013-05-21 14:56:00,
2013-05-21 10:12:00,71.8,65.0,29.67,SW,234,8.0,10.0,78,0.00,,,0.00,weatherlink.com 1.10,2013-05-21 15:12:00,
2013-05-21 10:27:00,72.4,63.0,29.68,NW,308,10.0,13.0,73,0.00,,,0.00,weatherlink.com 1.10,2013-05-21 15:27:00,
2013-05-21 10:42:00,72.7,63.0,29.68,West,273,7.0,12.0,71,0.00,,,0.00,weatherlink.com 1.10,2013-05-21 15:42:00,
2013-05-21 10:57:00,73.7,63.0,29.68,SSW,209,7.0,13.0,69,0.00,,,0.00,weatherlink.com 1.10,2013-05-21 15:57:00,
2013-05-21 11:12:00,74.2,63.0,29.68,SW,227,6.0,15.0,67,0.00,,,0.00,weatherlink.com 1.10,2013-05-21 16:12:00,
2013-05-21 11:27:00,74.3,63.0,29.68,WNW,286,4.0,13.0,67,0.00,,,0.00,weatherlink.com 1.10,2013-05-21 16:27:00,
2013-05-21 11:42:00,74.6,63.0,29.68,SW,228,7.0,11.0,67,0.00,,,0.00,weatherlink.com 1.10,2013-05-21 16:42:00,
2013-05-21 11:57:00,74.5,63.0,29.68,SSW,202,7.0,15.0,67,0.00,,,0.00,weatherlink.com 1.10,2013-05-21 16:57:00,
2013-05-21 12:12:00,75.3,62.0,29.68,SW,227,6.0,17.0,63,0.00,,,0.00,weatherlink.com 1.10,2013-05-21 17:12:00,
2013-05-21 12:27:00,75.7,61.0,29.68,NW,311,10.0,17.0,61,0.00,,,0.00,weatherlink.com 1.10,2013-05-21 17:27:00,
2013-05-21 12:42:00,76.1,62.0,29.68,West,259,9.0,14.0,62,0.00,,,0.00,weatherlink.com 1.10,2013-05-21 17:42:00,
2013-05-21 12:57:00,76.1,62.0,29.68,WNW,284,6.0,19.0,61,0.00,,,0.00,weatherlink.com 1.10,2013-05-21 17:57:00,
2013-05-21 13:12:00,77.1,61.0,29.68,WSW,243,9.0,17.0,58,0.00,,,0.00,weatherlink.com 1.10,2013-05-21 18:12:00,
2013-05-21 13:28:00,76.9,62.0,29.68,West,280,6.0,15.0,60,0.00,,,0.00,weatherlink.com 1.10,2013-05-21 18:28:00,
2013-05-21 13:43:00,77.9,62.0,29.68,West,274,4.0,15.0,59,0.00,,,0.00,weatherlink.com 1.10,2013-05-21 18:43:00,
2013-05-21 13:58:00,77.5,61.0,29.68,West,273,12.0,17.0,58,0.00,,,0.00,weatherlink.com 1.10,2013-05-21 18:58:00,
2013-05-21 14:13:00,78.1,62.0,29.68,WSW,245,4.0,17.0,57,0.00,,,0.00,weatherlink.com 1.10,2013-05-21 19:13:00,
2013-05-21 14:28:00,78.4,60.0,29.68,West,281,6.0,14.0,54,0.00,,,0.00,weatherlink.com 1.10,2013-05-21 19:28:00,
2013-05-21 14:43:00,78.6,60.0,29.68,WSW,255,7.0,18.0,53,0.00,,,0.00,weatherlink.com 1.10,2013-05-21 19:43:00,
2013-05-21 14:58:00,78.6,59.0,29.68,WSW,248,10.0,20.0,52,0.00,,,0.00,weatherlink.com 1.10,2013-05-21 19:58:00,
2013-05-21 15:13:00,78.5,60.0,29.67,NW,306,6.0,15.0,53,0.00,,,0.00,weatherlink.com 1.10,2013-05-21 20:13:00,
2013-05-21 15:28:00,78.4,61.0,29.67,West,267,5.0,13.0,55,0.00,,,0.00,weatherlink.com 1.10,2013-05-21 20:28:00,
2013-05-21 15:43:00,79.8,61.0,29.67,South,188,6.0,15.0,53,0.00,,,0.00,weatherlink.com 1.10,2013-05-21 20:43:00,
2013-05-21 15:58:00,79.3,61.0,29.67,WNW,296,9.0,14.0,54,0.00,,,0.00,weatherlink.com 1.10,2013-05-21 20:58:00,
2013-05-21 16:13:00,78.5,61.0,29.67,SW,231,5.0,11.0,55,0.00,,,0.00,weatherlink.com 1.10,2013-05-21 21:13:00,
2013-05-21 16:28:00,79.4,60.0,29.67,West,273,10.0,19.0,52,0.00,,,0.00,weatherlink.com 1.10,2013-05-21 21:28:00,
2013-05-21 16:43:00,78.4,60.0,29.66,WNW,282,2.0,15.0,54,0.00,,,0.00,weatherlink.com 1.10,2013-05-21 21:43:00,
2013-05-21 16:59:00,78.4,60.0,29.66,West,264,5.0,11.0,53,0.00,,,0.00,weatherlink.com 1.10,2013-05-21 21:59:00,
2013-05-21 17:14:00,78.3,60.0,29.66,WSW,248,3.0,12.0,53,0.00,,,0.00,weatherlink.com 1.10,2013-05-21 22:14:00,
2013-05-21 17:29:00,79.1,60.0,29.65,WSW,253,3.0,9.0,53,0.00,,,0.00,weatherlink.com 1.10,2013-05-21 22:29:00,
2013-05-21 17:59:00,79.1,60.0,29.65,West,262,5.0,13.0,52,0.00,,,0.00,weatherlink.com 1.10,2013-05-21 22:59:00,
2013-05-21 18:14:00,77.8,60.0,29.65,WSW,250,7.0,13.0,54,0.00,,,0.00,weatherlink.com 1.10,2013-05-21 23:14:00,
2013-05-21 18:29:00,78.3,61.0,29.64,WSW,239,5.0,11.0,56,0.00,,,0.00,weatherlink.com 1.10,2013-05-21 23:29:00,
2013-05-21 18:44:00,78.0,60.0,29.65,WNW,286,2.0,11.0,55,0.00,,,0.00,weatherlink.com 1.10,2013-05-21 23:44:00,
2013-05-21 18:59:00,78.0,60.0,29.65,West,269,6.0,9.0,55,0.00,,,0.00,weatherlink.com 1.10,2013-05-21 23:59:00,
2013-05-21 19:14:00,77.7,61.0,29.65,WNW,286,4.0,8.0,57,0.00,,,0.00,weatherlink.com 1.10,2013-05-22 00:14:00,
2013-05-21 19:29:00,76.9,60.0,29.66,WSW,239,3.0,8.0,57,0.00,,,0.00,weatherlink.com 1.10,2013-05-22 00:29:00,
2013-05-21 19:44:00,75.7,61.0,29.67,West,281,2.0,7.0,60,0.00,,,0.00,weatherlink.com 1.10,2013-05-22 00:44:00,
2013-05-21 20:00:00,75.2,61.0,29.67,WNW,282,3.0,5.0,61,0.00,,,0.00,weatherlink.com 1.10,2013-05-22 01:00:00,
2013-05-21 20:15:00,74.5,61.0,29.67,West,267,1.0,5.0,63,0.00,,,0.00,weatherlink.com 1.10,2013-05-22 01:15:00,
2013-05-21 20:30:00,73.7,62.0,29.67,WNW,284,1.0,6.0,66,0.00,,,0.00,weatherlink.com 1.10,2013-05-22 01:30:00,
2013-05-21 20:45:00,72.7,62.0,29.67,West,264,2.0,5.0,68,0.00,,,0.00,weatherlink.com 1.10,2013-05-22 01:45:00,
2013-05-21 21:00:00,72.0,61.0,29.66,WNW,287,1.0,5.0,69,0.00,,,0.00,weatherlink.com 1.10,2013-05-22 02:00:00,
2013-05-21 21:15:00,71.0,62.0,29.66,WNW,287,0.0,2.0,72,0.00,,,0.00,weatherlink.com 1.10,2013-05-22 02:15:00,
2013-05-21 21:30:00,69.8,61.0,29.65,WNW,287,1.0,1.0,73,0.00,,,0.00,weatherlink.com 1.10,2013-05-22 02:30:00,
2013-05-21 21:45:00,69.3,60.0,29.66,West,281,0.0,2.0,71,0.00,,,0.00,weatherlink.com 1.10,2013-05-22 02:45:00,
2013-05-21 22:00:00,68.9,59.0,29.66,West,281,0.0,1.0,71,0.00,,,0.00,weatherlink.com 1.10,2013-05-22 03:00:00,
2013-05-21 22:15:00,68.3,59.0,29.66,West,281,0.0,1.0,73,0.00,,,0.00,weatherlink.com 1.10,2013-05-22 03:15:00,
2013-05-21 22:30:00,68.2,59.0,29.65,West,281,0.0,3.0,72,0.00,,,0.00,weatherlink.com 1.10,2013-05-22 03:30:00,
2013-05-21 22:45:00,67.6,59.0,29.66,West,281,0.0,1.0,73,0.00,,,0.00,weatherlink.com 1.10,2013-05-22 03:45:00,
2013-05-21 23:00:00,67.2,59.0,29.66,West,281,0.0,1.0,74,0.00,,,0.00,weatherlink.com 1.10,2013-05-22 04:00:00,
2013-05-21 23:15:00,66.7,59.0,29.66,West,281,0.0,0.0,75,0.00,,,0.00,weatherlink.com 1.10,2013-05-22 04:15:00,
2013-05-21 23:31:00,66.0,58.0,29.67,West,281,0.0,2.0,76,0.00,,,0.00,weatherlink.com 1.10,2013-05-22 04:31:00,
2013-05-21 23:46:00,65.5,58.0,29.66,West,281,0.0,1.0,76,0.00,,,0.00,weatherlink.com 1.10,2013-05-22 04:46:00,